• Join FlightAware (Why Join?)
  • Login
  • US Flag 
07:31PM EST


 

Airport Tracker/Info


-or-


 

Live Flight TrackerFlight Track Log ✈ CJT571 ✈ 28-Mar-2014 ✈ CYYC - CYVR

Flight Track Log - Related Links

Times and Time Zones

All times are in EDT time to prevent confusion due to time zone crossing. See the CJT571 flight status page for this flight to view local times or setup timezone preferences in your user account.

Time Position Orientation Groundspeed Altitude Reporting Facility
EDT Latitude Longitude Course Direction KTS MPH feet Rate Location/Type
05:47AM 51.0667 -114.0500 270° West 140 161 4,600  Level Edmonton Center
05:48AM 51.0167 -114.0500 180° South 200 230 6,700 2,250 Climbing Edmonton Center
05:49AM 51.0833 -114.1823 270° West  Level FlightAware Approximate
05:49AM 50.9833 -114.1167 232° Southwest 260 299 9,100  Level Edmonton Center
05:50AM 51.0673 -114.3441 261° West  Level FlightAware Approximate
05:50AM 50.9833 -114.2333 270° West 290 334 11,600  Level Edmonton Center
05:51AM 51.0613 -114.5070 258° West  Level FlightAware Approximate
05:51AM 50.9833 -114.3667 270° West 330 380 14,200  Level Edmonton Center
05:52AM 51.0833 -114.1714 270° West  Level FlightAware Approximate
05:52AM 51.0000 -114.5333 279° West 350 403 16,900  Level Edmonton Center
05:53AM 51.0000 -114.6833 270° West 360 414 19,900 2,650 Climbing Edmonton Center
05:54AM 51.0000 -114.8500 270° West 360 414 22,200 2,350 Climbing Edmonton Center
05:55AM 50.9833 -115.0167 261° West 380 437 24,600 2,200 Climbing Edmonton Center
05:56AM 50.9500 -115.1667 251° West 390 449 26,600 1,850 Climbing Edmonton Center
05:57AM 50.9167 -115.3500 254° West 400 460 28,300 1,650 Climbing Edmonton Center
05:58AM 50.8833 -115.5333 254° West 420 483 29,900 1,750 Climbing Edmonton Center
05:59AM 50.8667 -115.7167 262° West 420 483 31,800 1,800 Climbing Edmonton Center
06:00AM 50.8333 -115.8833 252° West 420 483 33,500 1,650 Climbing Edmonton Center
06:01AM 50.8000 -116.0667 254° West 420 483 35,100 1,550 Climbing Edmonton Center
06:02AM 50.7667 -116.2500 254° West 420 483 36,600 1,250 Climbing Edmonton Center
06:03AM 50.7333 -116.4333 254° West 420 483 37,600 700 Climbing Edmonton Center
06:04AM 50.7000 -116.6167 254° West 420 483 38,000 200 Climbing Edmonton Center
06:05AM 50.6667 -116.7833 253° West 430 495 38,000  Level Edmonton Center
06:06AM 50.6500 -116.9667 262° West 430 495 38,000  Level Edmonton Center
06:07AM 50.6167 -117.1500 254° West 420 483 38,000  Level Edmonton Center
06:08AM 50.5667 -117.3333 247° West 420 483 38,000  Level Edmonton Center
06:09AM 50.5333 -117.5000 253° West 420 483 38,000  Level Edmonton Center
06:10AM 50.5167 -117.6833 262° West 410 472 38,000  Level Edmonton Center
06:11AM 50.4833 -117.8667 254° West 410 472 38,000  Level Edmonton Center
06:12AM 50.4333 -118.0500 247° West 420 483 38,000  Level Edmonton Center
06:13AM 50.4000 -118.2000 251° West 420 483 38,000  Level Edmonton Center
06:14AM 50.3833 -118.4000 263° West 420 483 38,000  Level Edmonton Center
06:15AM 50.3500 -118.5500 251° West 420 483 38,000  Level Edmonton Center
06:16AM 50.3000 -118.7167 245° Southwest 420 483 38,000  Level Edmonton Center
06:17AM 50.2667 -118.9000 254° West 420 483 38,000  Level Edmonton Center
06:18AM 50.2333 -119.0833 254° West 420 483 38,000  Level Edmonton Center
06:19AM 50.2000 -119.2500 253° West 420 483 38,000  Level Edmonton Center
06:20AM 50.1667 -119.4333 254° West 420 483 38,000  Level Edmonton Center
06:21AM 50.1333 -119.6000 253° West 420 483 38,000  Level Vancouver Center
06:27AM 50.1711 -119.3594 251° West 420 483 38,000  Level FlightAware ADS-B (FAKM / KIM)
06:32AM 49.7066 -121.4903 251° West 426 490 38,000 -17 Level FlightAware ADS-B (CYVR)
06:33AM 49.6802 -121.6051 251° West 426 490 37,900 -1,125 Descending FlightAware ADS-B (CYVR)
06:33AM 49.6534 -121.7220 251° West 420 483 36,500 -2,829 Descending FlightAware ADS-B (CYVR)
06:34AM 49.6345 -121.8039 250° West 418 481 34,600 -4,100 Descending FlightAware ADS-B (CYVR)
06:34AM 49.6153 -121.8872 251° West 408 470 32,400 -5,333 Descending FlightAware ADS-B (CYVR)
06:35AM 49.6072 -121.9224 250° West 415 478 31,400 -4,050 Descending FlightAware ADS-B (FAKM / KIM)
06:35AM 49.5894 -121.9979 251° West 416 479 29,700 -3,656 Descending FlightAware ADS-B (CYVR)
06:36AM 49.5703 -122.0806 250° West 419 482 27,500 -3,826 Descending FlightAware ADS-B (CYVR)
06:36AM 49.5449 -122.1883 250° West 417 480 25,300 -3,171 Descending FlightAware ADS-B (CYVR)
06:37AM 49.5243 -122.2765 250° West 414 476 23,800 -3,000 Descending FlightAware ADS-B (CYVR)
06:37AM 49.4989 -122.3838 250° West 401 461 21,800 -2,914 Descending FlightAware ADS-B (CYVR)
06:38AM 49.4804 -122.4621 250° West 387 445 20,400 -2,754 Descending FlightAware ADS-B (CYVR)
06:38AM 49.4617 -122.5403 250° West 375 432 19,000 -3,191 Descending FlightAware ADS-B (CYVR)
06:39AM 49.4493 -122.5929 250° West 368 423 17,900 -2,520 Descending FlightAware ADS-B (FAKM / KIM)
06:39AM 49.4326 -122.6617 250° West 380 437 16,900 -2,585 Descending FlightAware ADS-B (CYVR)
06:40AM 49.4093 -122.7597 249° West 372 428 15,100 -2,783 Descending FlightAware ADS-B (FAKM / KIM)
06:40AM 49.3909 -122.8357 249° West 361 415 13,700 -2,328 Descending FlightAware ADS-B (CYVR)
06:41AM 49.3739 -122.9056 249° West 350 403 12,500 -2,500 Descending FlightAware ADS-B (CYVR)
06:41AM 49.3573 -122.9744 250° West 340 391 11,200 -1,672 Descending FlightAware ADS-B (CYVR)
06:42AM 49.3399 -123.0457 250° West 328 377 10,800 -600 Descending FlightAware ADS-B (CYVR)
06:43AM 49.3204 -123.1260 250° West 289 333 10,500 -514 Descending FlightAware ADS-B (CYVR)
06:43AM 49.3066 -123.1823 250° West 263 303 10,200 -500 Descending FlightAware ADS-B (CYVR)
06:44AM 49.2948 -123.2305 250° West 243 280 10,000 -857 Descending FlightAware ADS-B (CYVR)
06:44AM 49.2869 -123.2632 249° West 246 283 9,500 -1,600 Descending FlightAware ADS-B (CYVR)
06:44AM 49.2807 -123.2877 250° West 258 297 9,200 -1,355 Descending FlightAware ADS-B (FAKM / KIM)
06:44AM 49.2744 -123.3149 253° West 263 303 8,800 -1,200 Descending FlightAware ADS-B (CYVR)
06:45AM 49.2721 -123.3309 265° West 259 298 8,600 -1,263 Descending FlightAware ADS-B (CYVR)
06:45AM 49.2721 -123.3493 277° West 255 293 8,400 -1,161 Descending FlightAware ADS-B (CYVR)
06:45AM 49.2766 -123.3865 280° West 261 300 8,000 -1,610 Descending FlightAware ADS-B (CYVR)
06:45AM 49.2811 -123.4230 281° West 265 305 7,300 -2,154 Descending FlightAware ADS-B (CYVR)
06:46AM 49.2854 -123.4568 281° West 264 304 6,600 -2,308 Descending FlightAware ADS-B (CYVR)
06:46AM 49.2900 -123.4946 277° West 260 299 5,800 -2,129 Descending FlightAware ADS-B (CYVR)
06:46AM 49.2897 -123.5134 257° West 253 291 5,500 -2,100 Descending FlightAware ADS-B (CYVR)
06:46AM 49.2855 -123.5293 239° Southwest 249 287 5,100 -2,100 Descending FlightAware ADS-B (CYVR)
06:47AM 49.2773 -123.5434 216° Southwest 241 277 4,800 -1,895 Descending FlightAware ADS-B (CYVR)
06:47AM 49.2692 -123.5499 197° South 233 268 4,500 -1,778 Descending FlightAware ADS-B (CYVR)
06:47AM 49.2503 -123.5564 191° South 222 255 4,000 -1,615 Descending FlightAware ADS-B (CYVR)
06:47AM 49.2368 -123.5602 186° South 216 249 3,800 -1,304 Descending FlightAware ADS-B (FAKM / KIM)
06:47AM 49.2273 -123.5593 168° South 210 242 3,500 -1,154 Descending FlightAware ADS-B (CYVR)
06:48AM 49.2196 -123.5538 147° Southeast 200 230 3,300 -900 Descending FlightAware ADS-B (CYVR)
06:48AM 49.2127 -123.5437 130° Southeast 186 214 3,200 -800 Descending FlightAware ADS-B (CYVR)
06:48AM 49.2040 -123.5214 112° Southeast 176 203 2,900 -828 Descending FlightAware ADS-B (CYVR)
06:48AM 49.2025 -123.5135 103° East 173 199 2,800 -600 Descending FlightAware ADS-B (CYVR)
06:48AM 49.2005 -123.4985 97° East 171 197 2,700 -774 Descending FlightAware ADS-B (CYVR)
06:49AM 49.1988 -123.4787 99° East 166 191 2,400 -900 Descending FlightAware ADS-B (CYVR)
06:49AM 49.1966 -123.4568 99° East 162 186 2,100 -615 Descending FlightAware ADS-B (CYVR)
06:49AM 49.1938 -123.4305 99° East 160 184 2,000 -150 Descending FlightAware ADS-B (CYVR)
06:50AM 49.1916 -123.4084 99° East 163 188 2,000 150 Level FlightAware ADS-B (CYVR)
06:50AM 49.1892 -123.3854 99° East 166 191 2,100 -237 Climbing FlightAware ADS-B (CYVR)
06:51AM 49.1827 -123.3224 98° East 139 160 1,700 -596 Descending FlightAware ADS-B (CYVR)
06:52AM 49.1751 -123.2479 99° East 116 133 700 -653 Descending FlightAware ADS-B (CYVR)
06:53AM 49.1738 -123.2341 99° East 114 131 600 -612 Descending FlightAware ADS-B (CYVR)
06:53AM 49.1710 -123.2078 98° East 118 136 200 -750 Descending FlightAware ADS-B (CYVR)